EW1948 Weather Reports


Display with metric or nautical units.
time (UTC)temp
F
wind
direction
speed
MPH
gust
MPH
rain 1hr
in
rain 24hr
in
rain mn
in
humidity
%
barometer
mb
20260901233514 94 113 3.0 7.0 0.00 0.00 0.00 48 1015.5
20260901232554 94 135 3.0 6.0 0.00 0.00 0.00 47 1015.5
20260901231515 94 113 3.0 6.0 0.00 0.00 0.00 47 1015.5
20260901230515 95 158 3.0 5.0 0.00 0.00 0.00 46 1015.4
20260901225515 96 158 4.0 9.0 0.00 0.00 0.00 45 1015.5
20260901224515 96 113 4.0 12.0 0.00 0.00 0.00 44 1015.4
20260901223514 97 135 4.0 7.0 0.00 0.00 0.00 43 1015.5
20260901222514 97 113 3.0 6.0 0.00 0.00 0.00 42 1015.4
20260901221514 96 113 4.0 9.0 0.00 0.00 0.00 43 1015.4
20260901220514 96 135 3.0 8.0 0.00 0.00 0.00 43 1015.4
20260901215514 97 158 1.0 4.0 0.00 0.00 0.00 43 1015.3
20260901214514 97 135 2.0 5.0 0.00 0.00 0.00 40 1015.4
20260901213515 98 158 3.0 10.0 0.00 0.00 0.00 38 1015.3
20260901212534 98 180 3.0 7.0 0.00 0.00 0.00 38 1015.3
20260901211514 98 180 3.0 7.0 0.00 0.00 0.00 38 1015.3
20260901210514 98 158 4.0 10.0 0.00 0.00 0.00 38 1015.6
20260901205534 99 158 4.0 8.0 0.00 0.00 0.00 38 1015.7
20260901204514 99 90 3.0 7.0 0.00 0.00 0.00 37 1015.8
20260901203514 98 135 2.0 5.0 0.00 0.00 0.00 38 1015.9
20260901202514 99 113 1.0 4.0 0.00 0.00 0.00 40 1016.0
20260901200514 98 113 4.0 10.0 0.00 0.00 0.00 39 1016.2
20260901195514 98 225 3.0 10.0 0.00 0.00 0.00 40 1016.3
20260901194514 97 180 1.0 5.0 0.00 0.00 0.00 41 1016.4
20260901193514 98 180 3.0 7.0 0.00 0.00 0.00 40 1016.6
20260901192514 99 158 3.0 6.0 0.00 0.00 0.00 39 1016.7
20260901191514 100 270 1.0 3.0 0.00 0.00 0.00 40 1016.8
20260901190514 98 248 1.0 7.0 0.00 0.00 0.00 41 1016.9
20260901185514 98 158 2.0 7.0 0.00 0.00 0.00 40 1017.0
20260901184514 98 113 3.0 9.0 0.00 0.00 0.00 41 1017.1
20260901183514 98 338 2.0 5.0 0.00 0.00 0.00 42 1017.2
20260901182514 97 113 2.0 5.0 0.00 0.00 0.00 44 1017.3
20260901181514 98 180 2.0 5.0 0.00 0.00 0.00 42 1017.5
20260901180514 97 135 2.0 5.0 0.00 0.00 0.00 45 1017.5
20260901175514 97 158 3.0 8.0 0.00 0.00 0.00 45 1017.7
20260901174514 97 158 3.0 7.0 0.00 0.00 0.00 44 1017.8
20260901173514 97 293 2.0 6.0 0.00 0.00 0.00 45 1017.9
20260901172514 96 0 2.0 4.0 0.00 0.00 0.00 46 1018.0
20260901171514 96 203 4.0 9.0 0.00 0.00 0.00 48 1018.0
20260901170514 96 338 1.0 4.0 0.00 0.00 0.00 49 1018.2
20260901165534 95 0 2.0 5.0 0.00 0.00 0.00 49 1018.3
20260901164514 94 225 1.0 5.0 0.00 0.00 0.00 53 1018.3
20260901163514 93 293 4.0 10.0 0.00 0.00 0.00 51 1018.4
20260901162514 92 180 2.0 6.0 0.00 0.00 0.00 53 1018.5
20260901161514 93 270 2.0 8.0 0.00 0.00 0.00 52 1018.6
20260901160514 92 248 2.0 6.0 0.00 0.00 0.00 54 1018.5
20260901155513 91 135 3.0 5.0 0.00 0.00 0.00 55 1018.6
20260901154514 91 68 2.0 6.0 0.00 0.00 0.00 55 1018.6
20260901153514 90 180 3.0 8.0 0.00 0.00 0.00 56 1018.7
20260901152534 90 180 2.0 5.0 0.00 0.00 0.00 58 1018.7
20260901151514 89 203 3.0 6.0 0.00 0.00 0.00 60 1018.7
20260901150514 88 203 2.0 6.0 0.00 0.00 0.00 62 1018.6
20260901145536 87 180 3.0 9.0 0.00 0.00 0.00 63 1018.6
20260901144516 86 135 2.0 4.0 0.00 0.00 0.00 66 1018.6
20260901143516 85 135 2.0 4.0 0.00 0.00 0.00 68 1018.6
20260901142515 84 158 2.0 4.0 0.00 0.00 0.00 70 1018.7
20260901141516 83 135 1.0 3.0 0.00 0.00 0.00 73 1018.7
20260901140515 82 158 1.0 3.0 0.00 0.00 0.00 74 1018.7
20260901135515 81 113 1.0 4.0 0.00 0.00 0.00 76 1018.8
20260901134515 80 180 2.0 6.0 0.00 0.00 0.00 77 1018.8
20260901133536 80 135 2.0 3.0 0.00 0.00 0.00 78 1018.8
20260901132515 79 135 1.0 3.0 0.00 0.00 0.00 80 1018.8
20260901131516 78 135 2.0 3.0 0.00 0.00 0.00 82 1018.8
20260901130555 77 113 2.0 3.0 0.00 0.00 0.00 84 1018.9
20260901125513 76 135 1.0 3.0 0.00 0.00 0.00 85 1018.7
20260901124515 76 135 2.0 3.0 0.00 0.00 0.00 86 1018.5
20260901123535 75 135 2.0 4.0 0.00 0.00 0.00 87 1018.5
20260901122516 75 158 1.0 3.0 0.00 0.00 0.00 88 1018.4
20260901121515 74 158 1.0 2.0 0.00 0.00 0.00 88 1018.3
20260901120516 74 180 1.0 3.0 0.00 0.00 0.00 88 1018.3
20260901115516 74 0.0 2.0 0.00 0.00 0.00 88 1018.2
20260901114535 74 180 1.0 2.0 0.00 0.00 0.00 89 1018.1
20260901113516 74 0.0 2.0 0.00 0.00 0.00 88 1018.0
20260901112515 74 158 1.0 2.0 0.00 0.00 0.00 89 1017.9
20260901111515 74 180 1.0 2.0 0.00 0.00 0.00 88 1018.0
20260901110515 74 0.0 0.0 0.00 0.00 0.00 88 1017.9
20260901105555 74 0.0 0.0 0.00 0.00 0.00 88 1017.8
20260901104515 74 0.0 0.0 0.00 0.00 0.00 88 1017.7
20260901103535 74 0.0 0.0 0.00 0.00 0.00 87 1017.8
20260901102535 74 0.0 0.0 0.00 0.00 0.00 87 1017.7
20260901101515 74 0.0 0.0 0.00 0.00 0.00 87 1017.6
20260901100515 74 0.0 0.0 0.00 0.00 0.00 87 1017.6
20260901095515 75 0.0 0.0 0.00 0.00 0.00 86 1017.5
20260901094515 75 0.0 0.0 0.00 0.00 0.00 86 1017.6
20260901093515 75 0.0 0.0 0.00 0.00 0.00 86 1017.5
20260901092515 75 0.0 0.0 0.00 0.00 0.00 86 1017.5
20260901091535 75 0.0 0.0 0.00 0.00 0.00 86 1017.3
20260901090515 75 0.0 0.0 0.00 0.00 0.00 86 1017.4
20260901085515 74 0.0 0.0 0.00 0.00 0.00 86 1017.2
20260901084535 74 0.0 0.0 0.00 0.00 0.00 87 1017.1
20260901083515 74 0.0 0.0 0.00 0.00 0.00 86 1017.0
20260901082515 74 0.0 0.0 0.00 0.00 0.00 86 1017.0
20260901081555 74 0.0 0.0 0.00 0.00 0.00 86 1016.9
20260901080535 75 0.0 0.0 0.00 0.00 0.00 86 1016.9
20260901075515 75 0.0 0.0 0.00 0.00 0.00 86 1016.9
20260901074535 75 0.0 0.0 0.00 0.00 0.00 86 1016.9
20260901073535 75 0.0 0.0 0.00 0.00 0.00 85 1016.9
20260901072515 75 0.0 0.0 0.00 0.00 0.00 85 1016.8
20260901071515 75 0.0 0.0 0.00 0.00 0.00 85 1016.8
20260901070515 76 0.0 0.0 0.00 0.00 0.00 84 1016.8
20260901065515 76 0.0 0.0 0.00 0.00 0.00 83 1016.9
20260901064535 76 0.0 0.0 0.00 0.00 0.00 83 1016.9
20260901063515 77 0.0 0.0 0.00 0.00 0.00 83 1016.9
20260901062515 77 0.0 0.0 0.00 0.00 0.00 82 1016.9
20260901061515 77 0.0 0.0 0.00 0.00 0.00 81 1016.9
20260901060515 77 0.0 0.0 0.00 0.00 0.00 81 1016.9
20260901055535 78 0.0 0.0 0.00 0.00 0.00 80 1017.0
20260901054515 78 0.0 0.0 0.00 0.00 0.00 79 1016.9
20260901053515 78 0.0 0.0 0.00 0.00 0.00 79 1016.9
20260901052555 79 0.0 0.0 0.00 0.00 0.00 78 1016.8
20260901051535 79 0.0 2.0 0.00 0.00 0.00 77 1016.7
20260901050515 79 0.0 2.0 0.00 0.00 0.00 77 1016.7
20260901045515 79 0.0 0.0 0.00 0.00 0.00 77 1016.7
20260901044535 79 0.0 0.0 0.00 0.00 0.00 76 1016.9
20260901043555 80 0.0 0.0 0.00 0.00 0.00 75 1016.9
20260901042515 80 0.0 0.0 0.00 0.00 0.00 74 1016.9
20260901041515 80 0.0 0.0 0.00 0.00 0.00 74 1016.9
20260901040515 81 158 1.0 2.0 0.00 0.00 0.00 73 1016.9
20260901035515 81 0.0 2.0 0.00 0.00 0.00 73 1016.8
20260901034515 81 203 1.0 3.0 0.00 0.00 0.00 73 1016.9
20260901033515 82 113 1.0 3.0 0.00 0.00 0.00 72 1016.8
20260901032515 82 113 1.0 3.0 0.00 0.00 0.00 72 1016.8
20260901031515 82 180 1.0 4.0 0.00 0.00 0.00 72 1016.7
20260901030535 82 180 1.0 2.0 0.00 0.00 0.00 71 1016.7
20260901025515 83 158 1.0 3.0 0.00 0.00 0.00 70 1016.8
20260901024515 83 158 1.0 3.0 0.00 0.00 0.00 69 1016.5
20260901023535 84 0.0 2.0 0.00 0.00 0.00 67 1016.5
20260901022535 84 158 2.0 3.0 0.00 0.00 0.00 66 1016.5
20260901021515 85 180 2.0 3.0 0.00 0.00 0.00 65 1016.4
20260901020515 85 203 1.0 3.0 0.00 0.00 0.00 65 1016.5
20260901015515 85 158 2.0 4.0 0.00 0.00 0.00 64 1016.3
20260901014535 86 135 1.0 3.0 0.00 0.00 0.00 64 1016.1
20260901013535 86 0.0 0.0 0.00 0.00 0.00 64 1016.0
20260901012515 87 0.0 0.0 0.00 0.00 0.00 63 1015.9
20260901011515 87 0.0 2.0 0.00 0.00 0.00 62 1015.7
20260901010515 88 135 1.0 3.0 0.00 0.00 0.00 60 1015.6
20260901005515 89 135 1.0 2.0 0.00 0.00 0.00 59 1015.6
20260901004515 90 135 1.0 3.0 0.00 0.00 0.00 57 1015.5
20260901003515 90 135 1.0 2.0 0.00 0.00 0.00 55 1015.4
20260901002515 91 135 1.0 3.0 0.00 0.00 0.00 54 1015.3
20260901001515 92 203 1.0 2.0 0.00 0.00 0.00 53 1015.4
20260901000535 93 203 1.0 3.0 0.00 0.00 0.00 51 1015.4
20260831235515 94 158 2.0 4.0 0.00 0.00 0.00 50 1015.4
20260831234515 96 225 2.0 4.0 0.00 0.00 0.00 45 1015.5